Location: Aldenham
(51.6667°N, 0.3500°W)
Time: 18:21:22
(UTC+00:00)

Explorer 7 - Pass Details

Date: 22 February 2026
Orbit: 430 x 542 km, 50.2° (Epoch: 8 March)

Event Time Altitude Azimuth Distance (km) Brightness Sun altitude
Rises 14:44:17 0° 244° (WSW) 2,417 11.3 20.4°
Reaches altitude 10° 14:46:25 10° 239° (WSW) 1,562 10.8 20.2°
Maximum altitude 14:49:50 51° 163° (SSE) 581 7.6 19.9°
Drops below altitude 10° 14:53:22 10° 87° (E) 1,620 8.9 19.5°
Sets 14:55:36 0° 82° (E) 2,519 9.8 19.3°
